Regional Weather Roundup
Issued by NWS

Home | Current Version | Previous Version | Graphics & Text | Print | Product List | Glossary On
Versions: 1 2 3 4 5 6 7 8 9 10 11 12 13 14 15 16 17 18 19 20 21 22 23 24 25 26 27 28 29 30 31 32 33 34 35 36 37 38 39 40 41 42 43 44 45 46 47 48 49 50
000
ASUS44 KMEG 240010
RWRTN
TENNESSEE HOURLY STATE WEATHER ROUNDUP
NATIONAL WEATHER SERVICE MEMPHIS TN
700 PM CDT THU MAR 23 2017

TNZ002-004-019-021-049-052-054-088>092-240100-
WEST TENNESSEE

CITY           SKY/WX    TMP DP  RH WIND       PRES   REMARKS
MEMPHIS INTL   CLEAR     77  52  41 S9        30.11S
NWS MEMPHIS      N/A     77 N/A N/A MISG        N/A
JACKSON        CLEAR     74  49  41 S8        30.14S
DYERSBURG      CLEAR     71  49  45 SE5       30.12F
SOMERVILLE     CLEAR     75  50  41 VRB3G12   30.12S
BOLIVAR        CLEAR     73  50  43 SE8       30.14R
PARIS          CLEAR     66  43  42 E5        30.15S
HUNTINGDON     CLEAR     70  48  46 S7        30.13F
SAVANNAH       CLEAR     73  50  43 S7        30.15S
$$

TNZ008-025-027-028-033-062-065-066-240100-
NORTH MIDDLE TENNESSEE

CITY           SKY/WX    TMP DP  RH WIND       PRES   REMARKS
NASHVILLE      PTCLDY    67  42  40 S10       30.22F
PORTLAND       CLOUDY    63  41  45 SE6       30.21F
CLARKSVILLE    CLEAR     59  44  57 E6        30.17F
SMYRNA         CLEAR     67  44  43 S10       30.23F
COOKEVILLE     PTCLDY    61  41  48 S7        30.26S
GALLATIN       CLEAR     64  43  45 S9        30.24F
CROSSVILLE     MOCLDY    55  39  54 S6        30.30F
$$

TNZ061-075-076-078-094-096-097-240100-
SOUTH MIDDLE TENNESSEE

CITY           SKY/WX    TMP DP  RH WIND       PRES   REMARKS
FAYETTEVILLE   CLEAR     66  46  48 SE10      30.25R
TULLAHOMA      CLEAR     64  37  36 SE9       30.27S
WINCHESTER     CLEAR     64  43  45 SE10      30.28R
MCMINNVILLE    CLEAR     63  41  45 SE5       30.27S
COLUMBIA       CLEAR     70  45  40 SE8       30.20R
SHELBYVILLE    CLEAR     66  46  48 SE6       30.25S
$$

TNZ017-018-042-046-047-240100-
NORTHEAST TENNESSEE

CITY           SKY/WX    TMP DP  RH WIND       PRES   REMARKS
TRI CITIES     PTCLDY    58  32  37 SW6       30.33R
ELIZABETHTON   CLEAR     57  25  28 E8        30.34R
$$

TNZ012-013-036-069-073-074-240100-
CENTRAL EAST TENNESSEE

CITY           SKY/WX    TMP DP  RH WIND       PRES   REMARKS
KNOXVILLE      CLOUDY    63  37  38 SW5       30.29S
OAK RIDGE      CLOUDY    64  35  34 VRB3      30.31S
DOWNTOWN KNOXV CLEAR     63  39  42 CALM      30.30S
GATLINBURG     CLEAR     61  34  36 CALM      30.31R
MORRISTOWN     MOCLDY    61  32  33 CALM      30.30F
JACKSBORO      CLOUDY    63  37  39 VRB3      30.32F
$$

TNZ083-085-099-240100-
SOUTHEAST TENNESSEE

CITY           SKY/WX    TMP DP  RH WIND       PRES   REMARKS
CHATTANOOGA    PTCLDY    62  34  35 SE7       30.34R
$$

SKY/WX REPORTED AS FAIR MEANS FEW OR NO CLOUDS BELOW
12 THOUSAND FEET.





USA.gov is the U.S. government's official web portal to all federal, state and local government web resources and services.